Location: Augustenthal
(51.7167°N, 10.2833°E)
Time: 16:02:43
(UTC+00:00)

Cosmos 1674 Rocket - Pass Details

Date: 18 May 2021
Orbit: 602 x 631 km, 82.5° (Epoch: 21 June)

Event Time Altitude Azimuth Distance (km) Brightness Sun altitude
Exits shadow 23:19:32 39° 162° (SSE) 955 4.0 -18.5°
Maximum altitude 23:21:03 64° 96° (E) 703 3.7 -18.5°
Drops below altitude 10° 23:25:30 10° 16° (NNE) 2,025 7.4 -18.5°
Sets 23:27:46 0° 13° (NNE) 2,936 8.6 -18.5°
